TimeEST,TemperatureF,Dew PointF,Humidity,Sea Level PressureIn,VisibilityMPH,Wind Direction,Wind SpeedMPH,Gust SpeedMPH,PrecipitationIn,Events,Conditions,WindDirDegrees,DateUTC
12:55 AM,31.8,18.7,58,30.19,10.0,West,15.0,20.7,N/A,,Clear,280,2013-01-24 05:55:00
1:55 AM,30.7,18.1,60,30.21,10.0,WNW,16.1,24.2,N/A,,Clear,300,2013-01-24 06:55:00
2:55 AM,28.4,16.9,62,30.26,10.0,NW,16.1,20.7,N/A,,Scattered Clouds,310,2013-01-24 07:55:00
3:55 AM,25.3,11.1,55,30.31,10.0,NNW,16.1,-,N/A,,Clear,330,2013-01-24 08:55:00
4:55 AM,24.3,10.9,57,30.34,10.0,NNW,12.7,-,N/A,,Overcast,340,2013-01-24 09:55:00
5:55 AM,22.5,10.2,59,30.38,10.0,North,11.5,-,N/A,,Scattered Clouds,350,2013-01-24 10:55:00
6:55 AM,21.2,5.4,51,30.43,10.0,North,12.7,-,N/A,,Clear,10,2013-01-24 11:55:00
7:55 AM,19.8,7.0,58,30.48,10.0,North,10.4,-,N/A,,Clear,10,2013-01-24 12:55:00
8:55 AM,21.0,8.4,58,30.50,10.0,NNE,9.2,-,N/A,,Clear,30,2013-01-24 13:55:00
9:55 AM,22.8,7.2,51,30.53,10.0,NE,10.4,-,N/A,,Scattered Clouds,40,2013-01-24 14:55:00
10:55 AM,24.3,2.1,39,30.57,10.0,NE,10.4,-,N/A,,Clear,40,2013-01-24 15:55:00
11:55 AM,26.1,-1.1,31,30.57,10.0,NE,15.0,19.6,N/A,,Partly Cloudy,50,2013-01-24 16:55:00
12:55 PM,27.5,-4.4,25,30.53,10.0,North,12.7,-,N/A,,Clear,10,2013-01-24 17:55:00
1:55 PM,28.6,-5.6,23,30.52,10.0,NNE,13.8,18.4,N/A,,Clear,20,2013-01-24 18:55:00
2:55 PM,28.0,-6.9,22,30.49,10.0,East,10.4,-,N/A,,Clear,90,2013-01-24 19:55:00
3:55 PM,28.0,-5.1,24,30.50,10.0,ENE,8.1,-,N/A,,Clear,70,2013-01-24 20:55:00
4:55 PM,26.6,-5.1,25,30.49,10.0,ENE,8.1,-,N/A,,Clear,70,2013-01-24 21:55:00
5:55 PM,24.8,-4.0,28,30.48,10.0,ENE,8.1,-,N/A,,Clear,60,2013-01-24 22:55:00
6:55 PM,24.4,-2.2,31,30.48,10.0,ENE,6.9,-,N/A,,Clear,70,2013-01-24 23:55:00
7:55 PM,23.5,-0.9,35,30.49,10.0,East,8.1,-,N/A,,Scattered Clouds,80,2013-01-25 00:55:00
8:55 PM,23.5,-1.5,34,30.46,10.0,East,10.4,-,N/A,,Mostly Cloudy,90,2013-01-25 01:55:00
9:55 PM,23.2,-0.0,37,30.43,10.0,East,11.5,-,N/A,,Partly Cloudy,80,2013-01-25 02:55:00
10:55 PM,22.6,0.5,38,30.41,10.0,East,9.2,-,N/A,,Partly Cloudy,80,2013-01-25 03:55:00
11:55 PM,22.1,1.2,40,30.40,10.0,East,9.2,-,N/A,,Mostly Cloudy,80,2013-01-25 04:55:00